OPS 7218 (TRANSIT 16) 1 02807U 67048A 26168.22692640 .00000093 00000+0 12804-3 0 9995 2 02807 89.6717 347.8976 0018373 299.6000 236.0838 13.50766129907937 OPS 4947 (TRANSIT 17) 1 02965U 67092A 26168.12237994 .00000083 00000+0 10574-3 0 9996 2 02965 89.2535 10.3105 0049359 56.0083 67.7986 13.53499496896186 OPS 7034 (TRANSIT 18) 1 03133U 68012A 26168.03759204 .00000101 00000+0 13843-3 0 9993 2 03133 90.0289 274.1047 0073172 352.5126 42.0496 13.51608748594353 NNSS 19 (TRANSIT 19) 1 04507U 70067A 26168.07121631 .00000117 00000+0 14829-3 0 9995 2 04507 90.0169 234.7274 0174027 112.8364 249.1271 13.51364720747385 NNSS 20 (TRANSIT 20) 1 06909U 73081A 26167.94873468 .00000199 00000+0 19431-3 0 9993 2 06909 89.8633 252.2615 0152670 239.3280 119.2761 13.71509351829139 TRANSAT 1 10457U 77106A 26168.02979707 .00000084 00000+0 11772-3 0 9994 2 10457 89.6486 71.9333 0026367 20.4418 350.8064 13.48971645392557 NOVA 1 1 12458U 81044A 26168.03187345 .00000087 00000+0 18419-3 0 9991 2 12458 89.8484 88.6397 0013063 317.5335 53.3663 13.23300162176500 NOVA 3 1 15362U 84110A 26168.01561257 .00000088 00000+0 18816-3 0 9993 2 15362 90.1208 82.6408 0031447 172.3936 198.8915 13.23069242 11619 OSCAR 30 1 15935U 85066A 26168.05446051 .00000083 00000+0 13673-3 0 9999 2 15935 90.1569 102.7514 0165685 278.2060 91.7590 13.36111845989416 OSCAR 24 1 15936U 85066B 26167.76939361 .00000073 00000+0 11952-3 0 9995 2 15936 90.1732 95.4688 0166844 285.6897 133.8188 13.35968088991273 POLAR BEAR 1 17070U 86088A 26168.09148149 .00000081 00000+0 72463-4 0 9998 2 17070 89.6183 176.3877 0037096 278.9301 145.4084 13.75288137985403 OSCAR 27 1 18361U 87080A 26167.76265872 .00000106 00000+0 16015-3 0 9999 2 18361 90.3722 86.1369 0105709 52.3513 308.7168 13.44941899900574 OSCAR 29 1 18362U 87080B 26168.04923910 .00000097 00000+0 14506-3 0 9998 2 18362 90.3732 86.6197 0107477 74.5907 297.2549 13.44479841900137 OSCAR 23 1 19070U 88033A 26168.11796661 .00000052 00000+0 87530-4 0 9992 2 19070 90.3275 22.2863 0190257 22.6371 92.7420 13.27817693847261 OSCAR 32 1 19071U 88033B 26168.07139691 .00000070 00000+0 12516-3 0 9993 2 19071 90.3280 22.4264 0188229 9.5172 104.0667 13.27980311847385 NOVA 2 1 19223U 88052A 26167.74060714 .00000046 00000+0 89367-4 0 9997 2 19223 89.9868 77.9668 0028970 218.4643 195.0327 13.22957149834076 OSCAR 25 1 19419U 88074A 26168.06619860 .00000079 00000+0 11771-3 0 9995 2 19419 90.0405 20.9626 0098080 74.9827 36.8052 13.42658472851405 OSCAR 31 1 19420U 88074B 26168.09778149 .00000069 00000+0 10234-3 0 9998 2 19420 90.0422 21.3435 0096227 69.2776 49.7643 13.42612164851519